Погода в Ньюквее

Великобритания     50°24′54″N   5°04′07″W
темп.,
°C
ветер,
м/с
пор.,
м/с
влажн.,
%
обл.,
%
осадки,
мм/ч
давл.,
гПа
погр.,
м
7 марта, вс
вс700:00+3в347442 0.0 1031158
03:00+2всв33720 0.0 1030163
06:00+2всв23722 0.0 1029214
09:00+3всв346443 0.0 1029360
12:00+5ссв456622 0.0 1029846
15:00+5с55698 0.0 1027662
18:00+4ссв57736 0.0 1027570
21:00+3св35750 0.0 1027555
8 марта, пн
пн800:00+2вюв22809 0.0 1027137
03:00+2юв11828 0.0 102687
06:00+3вюв11824 0.0 1025105
09:00+4юв22791 0.0 1026170
12:00+5зсз217416 0.0 1026425
15:00+6зсз227161 0.0 1025485
18:00+5зсз336735 0.0 1024446
21:00+5зсз347040 0.0 1025509
9 марта, вт
вт900:00+5юз237368 0.0 1024464
03:00+4юз337468 0.0 1023402
06:00+4юз468251 0.0 1022417
09:00+6ююз568063 0.0 1022386
12:00+8ююз687676 0.0 1021828
15:00+8ююз81077100 0.0 1019936
18:00+7ююз91382100 0.0 1016920
21:00+7ююз101584100 0.2 1015898
10 марта, ср
ср1000:00+8ю121889100 0.9 1012861
03:00+9ююз122091100 1.2 1009770
06:00+10ююз101695100 1.9 1007436
09:00+11ююз81397100 1.0 1006328
12:00+11юз111997100 4.4 1005562
15:00+11юз122092100 0.1 1003682
18:00+11юз142393100 0.5 1001722
21:00+11зюз152386100 0.3 10011215
11 марта, чт
чт1100:00+10зюз172576100 0.5 10011617
03:00+9зюз17247598 0.3 10011719
06:00+9зюз17246979 0.7 10021711
09:00+9з15207152 0.5 10041625
12:00+9з15197076 1.1 10061685
15:00+8з16206623 0.8 10071874
18:00+8з13186950 1.3 10091649
21:00+8з11157385 0.4 10111297